,,PA_Meas_PMT16A,,PR_Meas_QMR101_102,,RH_Meas_QMH101,,SR_Meas_QMS101,,TA_Meas_QMH101,,GenWind,,GenWind,
time,status,PA,status,PR,status,RH,status,SR,status,TA,status,DirAvg,status,SpdAvg,
2012-06-25, 00:00:05,VALID,918.918,VALID,0,VALID,97.2062,VALID,0,VALID,20.0764,VALID,86,VALID,0,
2012-06-25, 00:01:05,VALID,918.862,VALID,0,VALID,97.1986,VALID,0,VALID,20.0959,VALID,86,VALID,0,
2012-06-25, 00:02:05,VALID,918.837,VALID,0,VALID,97.2062,VALID,0,VALID,20.1139,VALID,86,VALID,0,
2012-06-25, 00:03:05,VALID,918.835,VALID,0,VALID,97.1986,VALID,0,VALID,20.1139,VALID,86,VALID,0,
2012-06-25, 00:04:05,VALID,918.844,VALID,0,VALID,97.1833,VALID,0,VALID,20.1349,VALID,86,VALID,0,
2012-06-25, 00:05:05,VALID,918.798,VALID,0,VALID,97.1681,VALID,0,VALID,20.1154,VALID,86,VALID,0,
2012-06-25, 00:06:05,VALID,918.814,VALID,0,VALID,97.1604,VALID,0,VALID,20.1154,VALID,87,VALID,0,
2012-06-25, 00:07:05,VALID,918.777,VALID,0,VALID,97.1681,VALID,0,VALID,20.1154,VALID,86,VALID,0,
2012-06-25, 00:08:05,VALID,918.773,VALID,0,VALID,97.1833,VALID,0.107441,VALID,20.0749,VALID,87,VALID,0,
2012-06-25, 00:09:05,VALID,918.761,VALID,0,VALID,97.1909,VALID,0,VALID,20.1154,VALID,86,VALID,0,
2012-06-25, 00:10:05,VALID,918.741,VALID,0,VALID,97.2138,VALID,0,VALID,20.1154,VALID,86,VALID,0,
2012-06-25, 00:11:05,VALID,918.718,VALID,0,VALID,97.2138,VALID,0,VALID,20.1544,VALID,86,VALID,0,
2012-06-25, 00:12:05,VALID,918.735,VALID,0,VALID,97.2367,VALID,0,VALID,20.1529,VALID,86,VALID,0,
2012-06-25, 00:13:05,VALID,918.789,VALID,0,VALID,97.2138,VALID,0,VALID,20.1949,VALID,86,VALID,0,
2012-06-25, 00:14:05,VALID,918.796,VALID,0,VALID,97.229,VALID,0,VALID,20.1544,VALID,86,VALID,0,
2012-06-25, 00:15:05,VALID,918.804,VALID,0,VALID,97.2214,VALID,0,VALID,20.1154,VALID,86,VALID,0,
2012-06-25, 00:16:05,VALID,918.864,VALID,0,VALID,97.2062,VALID,0,VALID,20.1349,VALID,86,VALID,0,
2012-06-25, 00:17:05,VALID,918.826,VALID,0,VALID,97.2367,VALID,0,VALID,20.1349,VALID,86,VALID,0,
2012-06-25, 00:18:05,VALID,918.875,VALID,0,VALID,97.2062,VALID,0,VALID,20.1154,VALID,86,VALID,0,
2012-06-25, 00:19:05,VALID,918.873,VALID,0,VALID,97.2367,VALID,0,VALID,20.1139,VALID,86,VALID,0,
2012-06-25, 00:20:05,VALID,918.849,VALID,0,VALID,97.229,VALID,0,VALID,20.1139,VALID,86,VALID,0,
2012-06-25, 00:21:05,VALID,918.837,VALID,0,VALID,97.2367,VALID,0.107441,VALID,20.1544,VALID,86,VALID,0,
2012-06-25, 00:22:05,VALID,918.865,VALID,0,VALID,97.2214,VALID,0,VALID,20.1739,VALID,86,VALID,0,
2012-06-25, 00:23:05,VALID,918.859,VALID,0,VALID,97.2443,VALID,0,VALID,20.1739,VALID,86,VALID,0,
2012-06-25, 00:24:05,VALID,918.87,VALID,0,VALID,97.2672,VALID,0,VALID,20.1544,VALID,86,VALID,0,
2012-06-25, 00:25:05,VALID,918.853,VALID,0,VALID,97.2367,VALID,0,VALID,20.1544,VALID,86,VALID,0,
2012-06-25, 00:26:05,VALID,918.819,VALID,0,VALID,97.2443,VALID,0,VALID,20.1544,VALID,86,VALID,0,
2012-06-25, 00:27:05,VALID,918.847,VALID,0,VALID,97.2367,VALID,0,VALID,20.1349,VALID,86,VALID,0,
2012-06-25, 00:28:05,VALID,918.815,VALID,0,VALID,97.2443,VALID,0,VALID,20.1139,VALID,86,VALID,0,
2012-06-25, 00:29:05,VALID,918.831,VALID,0,VALID,97.2443,VALID,0,VALID,20.1349,VALID,86,VALID,0,
2012-06-25, 00:30:05,VALID,918.838,VALID,0,VALID,97.2519,VALID,0,VALID,20.0944,VALID,86,VALID,0,
2012-06-25, 00:31:05,VALID,918.828,VALID,0,VALID,97.2367,VALID,0,VALID,20.0944,VALID,86,VALID,0,
2012-06-25, 00:32:05,VALID,918.807,VALID,0,VALID,97.2443,VALID,0,VALID,20.1154,VALID,86,VALID,0,
2012-06-25, 00:33:05,VALID,918.825,VALID,0,VALID,97.2443,VALID,0,VALID,20.0944,VALID,86,VALID,0,
2012-06-25, 00:34:05,VALID,918.783,VALID,0,VALID,97.2443,VALID,0,VALID,20.1154,VALID,86,VALID,0,
2012-06-25, 00:35:05,VALID,918.783,VALID,0,VALID,97.2519,VALID,0,VALID,20.1139,VALID,86,VALID,0,
2012-06-25, 00:36:05,VALID,918.74,VALID,0,VALID,97.2672,VALID,0,VALID,20.1139,VALID,86,VALID,0,
2012-06-25, 00:37:05,VALID,918.72,VALID,0,VALID,97.2595,VALID,0,VALID,20.1334,VALID,86,VALID,0,
2012-06-25, 00:38:05,VALID,918.701,VALID,0,VALID,97.29,VALID,0,VALID,20.1544,VALID,86,VALID,0,
2012-06-25, 00:39:05,VALID,918.691,VALID,0,VALID,97.2824,VALID,0,VALID,20.1544,VALID,86,VALID,0,
2012-06-25, 00:40:05,VALID,918.677,VALID,0,VALID,97.2595,VALID,0,VALID,20.0749,VALID,87,VALID,0,
2012-06-25, 00:41:05,VALID,918.663,VALID,0,VALID,97.29,VALID,0,VALID,20.0959,VALID,87,VALID,0,
2012-06-25, 00:42:05,VALID,918.643,VALID,0,VALID,97.29,VALID,0,VALID,20.0764,VALID,86,VALID,0,
2012-06-25, 00:43:05,VALID,918.639,VALID,0,VALID,97.2595,VALID,0,VALID,20.0374,VALID,86,VALID,0,
2012-06-25, 00:44:05,VALID,918.581,VALID,0,VALID,97.2595,VALID,0,VALID,19.9968,VALID,86,VALID,0,
2012-06-25, 00:45:05,VALID,918.575,VALID,0,VALID,97.2595,VALID,0,VALID,19.9968,VALID,86,VALID,0,
2012-06-25, 00:46:04,VALID,918.523,VALID,0,VALID,97.229,VALID,0,VALID,19.9984,VALID,86,VALID,0,
2012-06-25, 00:47:04,VALID,918.484,VALID,0,VALID,97.229,VALID,0,VALID,19.9593,VALID,86,VALID,0,
2012-06-25, 00:48:04,VALID,918.443,VALID,0,VALID,97.2443,VALID,0,VALID,19.9383,VALID,86,VALID,0,
2012-06-25, 00:49:04,VALID,918.458,VALID,0,VALID,97.2824,VALID,0,VALID,19.9398,VALID,86,VALID,0,
2012-06-25, 00:50:04,VALID,918.425,VALID,0,VALID,97.2977,VALID,0,VALID,19.9398,VALID,86,VALID,0,
2012-06-25, 00:51:04,VALID,918.412,VALID,0,VALID,97.29,VALID,0,VALID,19.9203,VALID,86,VALID,0,
2012-06-25, 00:52:04,VALID,918.441,VALID,0,VALID,97.29,VALID,0,VALID,19.9008,VALID,86,VALID,0,
2012-06-25, 00:53:04,VALID,918.447,VALID,0,VALID,97.2367,VALID,0,VALID,19.8408,VALID,86,VALID,0,
2012-06-25, 00:54:04,VALID,918.484,VALID,0,VALID,97.29,VALID,0,VALID,19.8603,VALID,86,VALID,0,
2012-06-25, 00:55:04,VALID,918.475,VALID,0,VALID,97.29,VALID,0,VALID,19.8408,VALID,86,VALID,0,
2012-06-25, 00:56:04,VALID,918.515,VALID,0,VALID,97.2824,VALID,0,VALID,19.8423,VALID,86,VALID,0,
2012-06-25, 00:57:04,VALID,918.488,VALID,0,VALID,97.3129,VALID,0,VALID,19.8018,VALID,86,VALID,0,
2012-06-25, 00:58:04,VALID,918.479,VALID,0,VALID,97.3129,VALID,0,VALID,19.8228,VALID,86,VALID,0,
2012-06-25, 00:59:04,VALID,918.484,VALID,0,VALID,97.3129,VALID,0,VALID,19.8018,VALID,86,VALID,0,
2012-06-25, 01:00:04,VALID,918.46,VALID,0,VALID,97.3281,VALID,0,VALID,19.8228,VALID,86,VALID,0,
2012-06-25, 01:01:04,VALID,918.453,VALID,0,VALID,97.3205,VALID,0,VALID,19.8228,VALID,86,VALID,0,
2012-06-25, 01:02:04,VALID,918.461,VALID,0,VALID,97.3281,VALID,0,VALID,19.8033,VALID,86,VALID,0,
2012-06-25, 01:03:04,VALID,918.428,VALID,0,VALID,97.3358,VALID,0,VALID,19.7823,VALID,86,VALID,0,
2012-06-25, 01:04:04,VALID,918.421,VALID,0,VALID,97.3358,VALID,0,VALID,19.7823,VALID,86,VALID,0,
2012-06-25, 01:05:04,VALID,918.428,VALID,0,VALID,97.3358,VALID,0,VALID,19.8228,VALID,86,VALID,0,
2012-06-25, 01:06:04,VALID,918.394,VALID,0,VALID,97.3739,VALID,0,VALID,19.8423,VALID,86,VALID,0,
2012-06-25, 01:07:04,VALID,918.37,VALID,0,VALID,97.3739,VALID,0,VALID,19.8423,VALID,86,VALID,0,
2012-06-25, 01:08:04,VALID,918.328,VALID,0,VALID,97.351,VALID,0,VALID,19.8018,VALID,86,VALID,0,
2012-06-25, 01:09:04,VALID,918.324,VALID,0,VALID,97.3663,VALID,0,VALID,19.8423,VALID,86,VALID,0,
2012-06-25, 01:10:04,VALID,918.345,VALID,0,VALID,97.3663,VALID,0,VALID,19.8213,VALID,86,VALID,0,
2012-06-25, 01:11:04,VALID,918.343,VALID,0,VALID,97.3663,VALID,0,VALID,19.8213,VALID,86,VALID,0,
2012-06-25, 01:12:04,VALID,918.336,VALID,0,VALID,97.3586,VALID,0,VALID,19.8213,VALID,86,VALID,0,
2012-06-25, 01:13:04,VALID,918.36,VALID,0,VALID,97.3739,VALID,0,VALID,19.8213,VALID,86,VALID,0,
2012-06-25, 01:14:04,VALID,918.347,VALID,0,VALID,97.3663,VALID,0,VALID,19.8228,VALID,86,VALID,0,
2012-06-25, 01:15:04,VALID,918.344,VALID,0,VALID,97.3586,VALID,0,VALID,19.8213,VALID,86,VALID,0,
2012-06-25, 01:16:04,VALID,918.359,VALID,0,VALID,97.3739,VALID,0,VALID,19.8228,VALID,86,VALID,0,
2012-06-25, 01:17:04,VALID,918.315,VALID,0,VALID,97.3663,VALID,0,VALID,19.8033,VALID,86,VALID,0,
2012-06-25, 01:18:04,VALID,918.317,VALID,0,VALID,97.3815,VALID,0,VALID,19.8213,VALID,86,VALID,0,
2012-06-25, 01:19:04,VALID,918.321,VALID,0,VALID,97.3891,VALID,0,VALID,19.8618,VALID,86,VALID,0,
2012-06-25, 01:20:04,VALID,918.311,VALID,0,VALID,97.3815,VALID,0,VALID,19.8423,VALID,86,VALID,0,
2012-06-25, 01:21:04,VALID,918.301,VALID,0,VALID,97.3739,VALID,0,VALID,19.8813,VALID,86,VALID,0,
2012-06-25, 01:22:04,VALID,918.334,VALID,0,VALID,97.3815,VALID,0,VALID,19.8993,VALID,86,VALID,0,
2012-06-25, 01:23:04,VALID,918.336,VALID,0,VALID,97.3815,VALID,0,VALID,19.8798,VALID,86,VALID,0,
2012-06-25, 01:24:04,VALID,918.347,VALID,0,VALID,97.3968,VALID,0,VALID,19.8618,VALID,86,VALID,0,
2012-06-25, 01:25:04,VALID,918.33,VALID,0,VALID,97.3815,VALID,0,VALID,19.8213,VALID,86,VALID,0,
2012-06-25, 01:26:04,VALID,918.307,VALID,0,VALID,97.3891,VALID,0,VALID,19.8423,VALID,86,VALID,0,
2012-06-25, 01:27:04,VALID,918.298,VALID,0,VALID,97.3739,VALID,0,VALID,19.8228,VALID,86,VALID,0,
2012-06-25, 01:28:04,VALID,918.238,VALID,0,VALID,97.3739,VALID,0.107441,VALID,19.8213,VALID,86,VALID,0,
2012-06-25, 01:29:04,VALID,918.221,VALID,0,VALID,97.3968,VALID,0,VALID,19.8018,VALID,86,VALID,0,
2012-06-25, 01:30:04,VALID,918.231,VALID,0,VALID,97.3891,VALID,0,VALID,19.8018,VALID,86,VALID,0,
2012-06-25, 01:31:04,VALID,918.184,VALID,0,VALID,97.3815,VALID,0,VALID,19.8033,VALID,86,VALID,0,
2012-06-25, 01:32:04,VALID,918.165,VALID,0,VALID,97.3663,VALID,0,VALID,19.7838,VALID,86,VALID,0,
2012-06-25, 01:33:04,VALID,918.188,VALID,0,VALID,97.3891,VALID,0,VALID,19.7838,VALID,86,VALID,0,
2012-06-25, 01:34:04,VALID,918.189,VALID,0,VALID,97.3663,VALID,0,VALID,19.7838,VALID,86,VALID,0,
2012-06-25, 01:35:04,VALID,918.183,VALID,0,VALID,97.3891,VALID,0,VALID,19.7838,VALID,86,VALID,0,
2012-06-25, 01:36:04,VALID,918.177,VALID,0,VALID,97.3891,VALID,0,VALID,19.7838,VALID,86,VALID,0,
2012-06-25, 01:37:04,VALID,918.166,VALID,0,VALID,97.3891,VALID,0,VALID,19.7643,VALID,86,VALID,0,
2012-06-25, 01:38:04,VALID,918.167,VALID,0,VALID,97.3815,VALID,0,VALID,19.7643,VALID,86,VALID,0,
2012-06-25, 01:39:04,VALID,918.17,VALID,0,VALID,97.3891,VALID,0,VALID,19.7643,VALID,86,VALID,0,
2012-06-25, 01:40:04,VALID,918.133,VALID,0,VALID,97.3891,VALID,0,VALID,19.7238,VALID,86,VALID,0,
2012-06-25, 01:41:04,VALID,918.091,VALID,0,VALID,97.3891,VALID,0,VALID,19.7838,VALID,86,VALID,0,
2012-06-25, 01:42:04,VALID,918.096,VALID,0,VALID,97.3968,VALID,0,VALID,19.7433,VALID,86,VALID,0,
2012-06-25, 01:43:04,VALID,918.055,VALID,0,VALID,97.3815,VALID,0,VALID,19.7448,VALID,86,VALID,0,
2012-06-25, 01:44:04,VALID,917.999,VALID,0,VALID,97.3815,VALID,0,VALID,19.7448,VALID,86,VALID,0,
2012-06-25, 01:45:04,VALID,917.98,VALID,0,VALID,97.3815,VALID,0,VALID,19.7253,VALID,84,VALID,0,
2012-06-25, 01:46:04,VALID,917.966,VALID,0,VALID,97.3815,VALID,0,VALID,19.7058,VALID,62,VALID,0,
2012-06-25, 01:47:04,VALID,917.982,VALID,0,VALID,97.3815,VALID,0,VALID,19.6863,VALID,62,VALID,0,
2012-06-25, 01:48:04,VALID,917.964,VALID,0,VALID,97.4044,VALID,0,VALID,19.6668,VALID,62,VALID,0,
2012-06-25, 01:49:04,VALID,917.978,VALID,0,VALID,97.3739,VALID,0,VALID,19.6473,VALID,62,VALID,0,
2012-06-25, 01:50:04,VALID,917.971,VALID,0,VALID,97.3815,VALID,0,VALID,19.6263,VALID,62,VALID,0,
2012-06-25, 01:51:04,VALID,917.937,VALID,0,VALID,97.3739,VALID,0,VALID,19.6278,VALID,62,VALID,0,
2012-06-25, 01:52:04,VALID,917.932,VALID,0,VALID,97.3739,VALID,0,VALID,19.5873,VALID,62,VALID,0,
2012-06-25, 01:53:04,VALID,917.928,VALID,0,VALID,97.3739,VALID,0,VALID,19.5693,VALID,66,VALID,0,
2012-06-25, 01:54:04,VALID,917.945,VALID,0,VALID,97.3663,VALID,0,VALID,19.5498,VALID,82,VALID,0,
2012-06-25, 01:55:04,VALID,917.926,VALID,0,VALID,97.3739,VALID,0,VALID,19.5303,VALID,82,VALID,0,
2012-06-25, 01:56:04,VALID,917.916,VALID,0,VALID,97.3815,VALID,0,VALID,19.5303,VALID,90,VALID,0,
2012-06-25, 01:57:04,VALID,917.93,VALID,0,VALID,97.3815,VALID,0,VALID,19.4898,VALID,87,VALID,0,
2012-06-25, 01:58:04,VALID,917.919,VALID,0,VALID,97.3815,VALID,0,VALID,19.5108,VALID,95,VALID,0,
2012-06-25, 01:59:04,VALID,917.904,VALID,0,VALID,97.3891,VALID,0,VALID,19.5108,VALID,95,VALID,0,
2012-06-25, 02:00:04,VALID,917.888,VALID,0,VALID,97.3815,VALID,0,VALID,19.5093,VALID,95,VALID,0,
2012-06-25, 02:01:04,VALID,917.893,VALID,0,VALID,97.3891,VALID,0,VALID,19.5108,VALID,95,VALID,0,
2012-06-25, 02:02:04,VALID,917.858,VALID,0,VALID,97.3968,VALID,0,VALID,19.4898,VALID,95,VALID,0,
2012-06-25, 02:03:04,VALID,917.853,VALID,0,VALID,97.3968,VALID,0,VALID,19.5108,VALID,95,VALID,0,
2012-06-25, 02:04:04,VALID,917.852,VALID,0,VALID,97.4196,VALID,0,VALID,19.5108,VALID,95,VALID,0,
2012-06-25, 02:05:04,VALID,917.853,VALID,0,VALID,97.412,VALID,0,VALID,19.4703,VALID,95,VALID,0,
2012-06-25, 02:06:04,VALID,917.854,VALID,0,VALID,97.412,VALID,0,VALID,19.4508,VALID,95,VALID,0,
2012-06-25, 02:07:04,VALID,917.807,VALID,0,VALID,97.4349,VALID,0,VALID,19.4718,VALID,95,VALID,0,
2012-06-25, 02:08:04,VALID,917.812,VALID,0,VALID,97.412,VALID,0,VALID,19.4523,VALID,95,VALID,0,
2012-06-25, 02:09:04,VALID,917.741,VALID,0,VALID,97.4196,VALID,0,VALID,19.4718,VALID,95,VALID,0,
2012-06-25, 02:10:04,VALID,917.711,VALID,0,VALID,97.4349,VALID,0,VALID,19.4913,VALID,60,VALID,0,
2012-06-25, 02:11:04,VALID,917.697,VALID,0,VALID,97.4196,VALID,0,VALID,19.4523,VALID,77,VALID,0,
2012-06-25, 02:12:04,VALID,917.7,VALID,0,VALID,97.4349,VALID,0,VALID,19.4523,VALID,77,VALID,0,
2012-06-25, 02:13:04,VALID,917.695,VALID,0,VALID,97.4349,VALID,0,VALID,19.4523,VALID,78,VALID,0,
2012-06-25, 02:14:04,VALID,917.66,VALID,0,VALID,97.4425,VALID,0,VALID,19.4327,VALID,78,VALID,0,
2012-06-25, 02:15:04,VALID,917.667,VALID,0,VALID,97.4349,VALID,0,VALID,19.4313,VALID,77,VALID,0,
2012-06-25, 02:16:04,VALID,917.713,VALID,0,VALID,97.4349,VALID,0,VALID,19.4523,VALID,77,VALID,0,
2012-06-25, 02:17:04,VALID,917.692,VALID,0,VALID,97.4196,VALID,0,VALID,19.4327,VALID,80,VALID,0,
2012-06-25, 02:18:04,VALID,917.713,VALID,0,VALID,97.4349,VALID,0,VALID,19.4327,VALID,82,VALID,0,
2012-06-25, 02:19:04,VALID,917.648,VALID,0,VALID,97.4425,VALID,0,VALID,19.4327,VALID,82,VALID,0,
2012-06-25, 02:20:04,VALID,917.669,VALID,0,VALID,97.4196,VALID,0,VALID,19.4118,VALID,82,VALID,0,
2012-06-25, 02:21:04,VALID,917.68,VALID,0,VALID,97.4349,VALID,0,VALID,19.4523,VALID,82,VALID,0,
2012-06-25, 02:22:04,VALID,917.647,VALID,0,VALID,97.4349,VALID,0,VALID,19.4132,VALID,82,VALID,0,
2012-06-25, 02:23:04,VALID,917.652,VALID,0,VALID,97.4349,VALID,0,VALID,19.4327,VALID,94,VALID,0,
2012-06-25, 02:24:04,VALID,917.615,VALID,0,VALID,97.4425,VALID,0,VALID,19.4327,VALID,94,VALID,0,
2012-06-25, 02:25:04,VALID,917.604,VALID,0,VALID,97.4501,VALID,0,VALID,19.4327,VALID,94,VALID,0,
2012-06-25, 02:26:04,VALID,917.581,VALID,0,VALID,97.4273,VALID,0,VALID,19.4313,VALID,94,VALID,0,
2012-06-25, 02:27:04,VALID,917.582,VALID,0,VALID,97.4349,VALID,0,VALID,19.4523,VALID,95,VALID,0,
2012-06-25, 02:28:04,VALID,917.533,VALID,0,VALID,97.4196,VALID,0,VALID,19.4523,VALID,94,VALID,0,
2012-06-25, 02:29:04,VALID,917.519,VALID,0,VALID,97.4425,VALID,0,VALID,19.4718,VALID,106,VALID,0,
2012-06-25, 02:30:04,VALID,917.47,VALID,0,VALID,97.4654,VALID,0,VALID,19.4703,VALID,116,VALID,0,
2012-06-25, 02:31:04,VALID,917.505,VALID,0,VALID,97.4654,VALID,0,VALID,19.4718,VALID,116,VALID,0,
2012-06-25, 02:32:04,VALID,917.519,VALID,0,VALID,97.4349,VALID,0,VALID,19.4913,VALID,118,VALID,0,
2012-06-25, 02:33:04,VALID,917.505,VALID,0,VALID,97.4501,VALID,0,VALID,19.4913,VALID,127,VALID,0,
2012-06-25, 02:34:04,VALID,917.525,VALID,0,VALID,97.4577,VALID,0,VALID,19.4718,VALID,112,VALID,0,
2012-06-25, 02:35:04,VALID,917.556,VALID,0,VALID,97.4349,VALID,0,VALID,19.4718,VALID,111,VALID,0,
2012-06-25, 02:36:04,VALID,917.53,VALID,0,VALID,97.4425,VALID,0,VALID,19.4718,VALID,115,VALID,0,
2012-06-25, 02:37:04,VALID,917.552,VALID,0,VALID,97.4425,VALID,0,VALID,19.4537,VALID,92,VALID,0,
2012-06-25, 02:38:04,VALID,917.577,VALID,0,VALID,97.4425,VALID,0,VALID,19.3547,VALID,110,VALID,0,
2012-06-25, 02:39:04,VALID,917.557,VALID,0,VALID,97.4196,VALID,0,VALID,19.3547,VALID,97,VALID,0,
2012-06-25, 02:40:04,VALID,917.558,VALID,0,VALID,97.4196,VALID,0,VALID,19.2753,VALID,131,VALID,0,
2012-06-25, 02:41:04,VALID,917.515,VALID,0,VALID,97.4501,VALID,0,VALID,19.2767,VALID,122,VALID,0,
2012-06-25, 02:42:04,VALID,917.546,VALID,0,VALID,97.4273,VALID,0,VALID,19.2782,VALID,122,VALID,0.596875,
2012-06-25, 02:43:04,VALID,917.541,VALID,0,VALID,97.4196,VALID,0,VALID,19.2572,VALID,124,VALID,0,
2012-06-25, 02:44:04,VALID,917.546,VALID,0,VALID,97.4654,VALID,0,VALID,19.2377,VALID,121,VALID,1.47187,
2012-06-25, 02:45:04,VALID,917.552,VALID,0,VALID,97.4425,VALID,0,VALID,19.2377,VALID,126,VALID,1.53945,
2012-06-25, 02:46:04,VALID,917.59,VALID,0,VALID,97.4196,VALID,0,VALID,19.2392,VALID,112,VALID,1.42734,
2012-06-25, 02:47:04,VALID,917.577,VALID,0,VALID,97.4425,VALID,0,VALID,19.2182,VALID,108,VALID,1.25352,
2012-06-25, 02:48:04,VALID,917.564,VALID,0,VALID,97.4577,VALID,0,VALID,19.2377,VALID,109,VALID,1.71758,
2012-06-25, 02:49:04,VALID,917.591,VALID,0,VALID,97.4501,VALID,0,VALID,19.2392,VALID,86,VALID,1.01758,
2012-06-25, 02:50:04,VALID,917.595,VALID,0,VALID,97.473,VALID,0,VALID,19.2182,VALID,119,VALID,2.04102,
2012-06-25, 02:51:04,VALID,917.572,VALID,0,VALID,97.4577,VALID,0,VALID,19.2182,VALID,118,VALID,1.02383,
2012-06-25, 02:52:04,VALID,917.576,VALID,0,VALID,97.4577,VALID,0,VALID,19.2182,VALID,120,VALID,1.16914,
2012-06-25, 02:53:04,VALID,917.568,VALID,0,VALID,97.4577,VALID,0,VALID,19.1973,VALID,124,VALID,0.976172,
2012-06-25, 02:54:04,VALID,917.546,VALID,0,VALID,97.4882,VALID,0,VALID,19.2377,VALID,119,VALID,1.21445,
2012-06-25, 02:55:04,VALID,917.536,VALID,0,VALID,97.5035,VALID,0,VALID,19.1987,VALID,116,VALID,1.0625,
2012-06-25, 02:56:04,VALID,917.543,VALID,0,VALID,97.473,VALID,0,VALID,19.2182,VALID,116,VALID,0.745703,
2012-06-25, 02:57:04,VALID,917.543,VALID,0,VALID,97.4959,VALID,0,VALID,19.1792,VALID,116,VALID,0.913281,
2012-06-25, 02:58:04,VALID,917.602,VALID,0,VALID,97.473,VALID,0,VALID,19.1987,VALID,132,VALID,1.03086,
2012-06-25, 02:59:04,VALID,917.604,VALID,0,VALID,97.4806,VALID,0,VALID,19.1987,VALID,133,VALID,1.2293,
2012-06-25, 03:00:04,VALID,917.619,VALID,0,VALID,97.473,VALID,0,VALID,19.1987,VALID,158,VALID,0.573438,
2012-06-25, 03:01:04,VALID,917.643,VALID,0,VALID,97.4959,VALID,0,VALID,19.1987,VALID,155,VALID,0.609766,
2012-06-25, 03:02:04,VALID,917.676,VALID,0,VALID,97.4806,VALID,0,VALID,19.2377,VALID,171,VALID,0.211719,
2012-06-25, 03:03:04,VALID,917.704,VALID,0,VALID,97.4806,VALID,0,VALID,19.2182,VALID,126,VALID,0.713672,
2012-06-25, 03:04:04,VALID,917.707,VALID,0,VALID,97.4806,VALID,0,VALID,19.2377,VALID,132,VALID,0.498437,
2012-06-25, 03:05:04,VALID,917.681,VALID,0,VALID,97.4806,VALID,0,VALID,19.2182,VALID,152,VALID,0.951953,
2012-06-25, 03:06:04,VALID,917.677,VALID,0,VALID,97.4654,VALID,0,VALID,19.1973,VALID,171,VALID,1.33984,
2012-06-25, 03:07:04,VALID,917.687,VALID,0,VALID,97.4654,VALID,0,VALID,19.2182,VALID,173,VALID,1.12734,
2012-06-25, 03:08:04,VALID,917.67,VALID,0,VALID,97.4577,VALID,0,VALID,19.2182,VALID,170,VALID,1.10039,
2012-06-25, 03:09:04,VALID,917.671,VALID,0,VALID,97.4349,VALID,0,VALID,19.1987,VALID,174,VALID,1.59727,
2012-06-25, 03:10:04,VALID,917.649,VALID,0,VALID,97.412,VALID,0,VALID,19.2182,VALID,177,VALID,0.964453,
2012-06-25, 03:11:04,VALID,917.641,VALID,0,VALID,97.4349,VALID,0,VALID,19.1987,VALID,173,VALID,1.42227,
2012-06-25, 03:12:04,VALID,917.61,VALID,0,VALID,97.4044,VALID,0,VALID,19.1987,VALID,170,VALID,0.574219,
2012-06-25, 03:13:04,VALID,917.636,VALID,0,VALID,97.3815,VALID,0,VALID,19.1792,VALID,171,VALID,1.06641,
2012-06-25, 03:14:04,VALID,917.639,VALID,0,VALID,97.3739,VALID,0,VALID,19.2002,VALID,156,VALID,0.637109,
2012-06-25, 03:15:04,VALID,917.664,VALID,0,VALID,97.3586,VALID,0,VALID,19.1792,VALID,156,VALID,0.678125,
2012-06-25, 03:16:04,VALID,917.651,VALID,0,VALID,97.3663,VALID,0,VALID,19.1792,VALID,164,VALID,0.778516,
2012-06-25, 03:17:04,VALID,917.657,VALID,0,VALID,97.3663,VALID,0,VALID,19.1597,VALID,177,VALID,0.342187,
2012-06-25, 03:18:04,VALID,917.674,VALID,0,VALID,97.3205,VALID,0,VALID,19.1597,VALID,177,VALID,0.532812,
2012-06-25, 03:19:04,VALID,917.711,VALID,0,VALID,97.3053,VALID,0,VALID,19.1807,VALID,54,VALID,1.19844,
2012-06-25, 03:20:04,VALID,917.72,VALID,0,VALID,97.2519,VALID,0,VALID,19.1207,VALID,68,VALID,1.39922,
2012-06-25, 03:21:04,VALID,917.711,VALID,0,VALID,97.2367,VALID,0,VALID,19.1012,VALID,105,VALID,1.29102,
2012-06-25, 03:22:04,VALID,917.711,VALID,0,VALID,97.2519,VALID,0,VALID,19.0817,VALID,106,VALID,0.871094,
2012-06-25, 03:23:04,VALID,917.724,VALID,0,VALID,97.2214,VALID,0,VALID,19.0622,VALID,106,VALID,1.26563,
2012-06-25, 03:24:04,VALID,917.74,VALID,0,VALID,97.2062,VALID,0,VALID,19.0427,VALID,150,VALID,0.978906,
2012-06-25, 03:25:04,VALID,917.736,VALID,0,VALID,97.2367,VALID,0,VALID,19.0817,VALID,154,VALID,1.21016,
2012-06-25, 03:26:04,VALID,917.721,VALID,0,VALID,97.2214,VALID,0,VALID,19.0622,VALID,152,VALID,0.933203,
2012-06-25, 03:27:04,VALID,917.729,VALID,0,VALID,97.1909,VALID,0,VALID,19.0622,VALID,154,VALID,0.644141,
2012-06-25, 03:28:04,VALID,917.728,VALID,0,VALID,97.1833,VALID,0,VALID,19.0622,VALID,164,VALID,0.910937,
2012-06-25, 03:29:04,VALID,917.767,VALID,0,VALID,97.1909,VALID,0,VALID,19.0622,VALID,164,VALID,0.6625,
2012-06-25, 03:30:04,VALID,917.78,VALID,0,VALID,97.1833,VALID,0,VALID,19.0817,VALID,158,VALID,0.674609,
2012-06-25, 03:31:04,VALID,917.782,VALID,0,VALID,97.1681,VALID,0,VALID,19.0622,VALID,155,VALID,0.595703,
2012-06-25, 03:32:04,VALID,917.809,VALID,0,VALID,97.1604,VALID,0,VALID,19.0622,VALID,131,VALID,0.830469,
2012-06-25, 03:33:04,VALID,917.807,VALID,0,VALID,97.1147,VALID,0,VALID,19.0427,VALID,132,VALID,1.14219,
2012-06-25, 03:34:04,VALID,917.812,VALID,0,VALID,97.0842,VALID,0,VALID,19.0427,VALID,128,VALID,1.46289,
2012-06-25, 03:35:04,VALID,917.797,VALID,0,VALID,97.0994,VALID,0,VALID,19.0442,VALID,128,VALID,0.795313,
2012-06-25, 03:36:04,VALID,917.81,VALID,0,VALID,97.1147,VALID,0,VALID,19.0232,VALID,128,VALID,0.413672,
2012-06-25, 03:37:04,VALID,917.795,VALID,0,VALID,97.0994,VALID,0,VALID,19.0232,VALID,128,VALID,0.508984,
2012-06-25, 03:38:04,VALID,917.816,VALID,0,VALID,97.0994,VALID,0,VALID,19.0232,VALID,128,VALID,0.375,
2012-06-25, 03:39:04,VALID,917.784,VALID,0,VALID,97.0918,VALID,0,VALID,19.0037,VALID,132,VALID,0.239844,
2012-06-25, 03:40:04,VALID,917.788,VALID,0,VALID,97.0308,VALID,0,VALID,18.9842,VALID,132,VALID,1.25898,
2012-06-25, 03:41:04,VALID,917.771,VALID,0,VALID,97.0156,VALID,0,VALID,18.9647,VALID,130,VALID,0.826563,
2012-06-25, 03:42:04,VALID,917.799,VALID,0,VALID,97.0003,VALID,0,VALID,18.9842,VALID,130,VALID,0.567969,
2012-06-25, 03:43:04,VALID,917.799,VALID,0,VALID,97.0156,VALID,0,VALID,18.9243,VALID,104,VALID,1.01953,
2012-06-25, 03:44:04,VALID,917.785,VALID,0,VALID,96.9927,VALID,0,VALID,18.9467,VALID,104,VALID,0.539844,
2012-06-25, 03:45:04,VALID,917.781,VALID,0,VALID,96.9927,VALID,0,VALID,18.9257,VALID,125,VALID,0.811328,
2012-06-25, 03:46:04,VALID,917.779,VALID,0,VALID,97.008,VALID,0,VALID,18.9062,VALID,127,VALID,1.02305,
2012-06-25, 03:47:04,VALID,917.762,VALID,0,VALID,97.0003,VALID,0,VALID,18.9062,VALID,125,VALID,0.819922,
2012-06-25, 03:48:04,VALID,917.718,VALID,0,VALID,96.9851,VALID,0,VALID,18.9272,VALID,97,VALID,0.7875,
2012-06-25, 03:49:04,VALID,917.706,VALID,0,VALID,96.9698,VALID,0,VALID,18.9272,VALID,97,VALID,0.635156,
2012-06-25, 03:50:04,VALID,917.731,VALID,0,VALID,96.947,VALID,0,VALID,18.8867,VALID,97,VALID,0.624609,
2012-06-25, 03:51:04,VALID,917.737,VALID,0,VALID,96.947,VALID,0,VALID,18.8882,VALID,97,VALID,0.589453,
2012-06-25, 03:52:04,VALID,917.725,VALID,0,VALID,96.9698,VALID,0,VALID,18.8672,VALID,97,VALID,0.251172,
2012-06-25, 03:53:04,VALID,917.772,VALID,0,VALID,96.9775,VALID,0,VALID,18.8882,VALID,97,VALID,0.640625,
2012-06-25, 03:54:04,VALID,917.724,VALID,0,VALID,96.9698,VALID,0,VALID,18.8672,VALID,97,VALID,0.379297,
2012-06-25, 03:55:04,VALID,917.724,VALID,0,VALID,96.9851,VALID,0,VALID,18.8672,VALID,97,VALID,0.330078,
2012-06-25, 03:56:04,VALID,917.755,VALID,0,VALID,96.9851,VALID,0,VALID,18.8672,VALID,97,VALID,0.509375,